Time,TemperatureF,DewpointF,PressureIn,WindDirection,WindDirectionDegrees,WindSpeedMPH,WindSpeedGustMPH,Humidity,HourlyPrecipIn,Conditions,Clouds,dailyrainin,SolarRadiationWatts/m^2,SoftwareType,DateUTC
2013-07-13 00:01:00,75.0,73.0,-100.00,ESE,108,0.0,0.0,95,0.00,,,0.03,0.000000,,2013-07-13 04:01:00,
2013-07-13 00:32:00,75.0,73.0,-100.00,ESE,109,0.0,0.0,95,0.00,,,0.03,0.000000,,2013-07-13 04:32:00,
2013-07-13 00:44:00,75.0,73.0,-100.00,ESE,109,0.0,0.0,95,0.00,,,0.03,0.000000,,2013-07-13 04:44:00,
2013-07-13 00:52:00,75.0,73.0,-100.00,ESE,109,0.0,0.0,95,0.00,,,0.03,0.000000,,2013-07-13 04:52:00,
2013-07-13 01:01:00,75.0,73.0,-100.00,ESE,109,0.0,0.0,95,0.00,,,0.03,0.000000,,2013-07-13 05:01:00,
2013-07-13 01:33:00,75.0,73.0,-100.00,West,271,0.0,4.0,95,0.00,,,0.03,0.000000,,2013-07-13 05:33:00,
2013-07-13 01:42:00,75.0,73.0,-100.00,West,271,0.0,4.0,95,0.00,,,0.03,0.000000,,2013-07-13 05:42:00,
2013-07-13 01:52:00,75.0,73.0,-100.00,West,271,0.0,4.0,95,0.00,,,0.03,0.000000,,2013-07-13 05:52:00,
2013-07-13 02:02:00,75.0,73.0,-100.00,West,271,0.0,4.0,95,0.00,,,0.03,0.000000,,2013-07-13 06:02:00,
2013-07-13 02:32:00,74.0,72.0,-100.00,NNW,337,0.0,0.0,95,0.00,,,0.03,0.000000,,2013-07-13 06:32:00,
2013-07-13 02:43:00,74.0,72.0,-100.00,NNW,337,0.0,0.0,95,0.00,,,0.03,0.000000,,2013-07-13 06:43:00,
2013-07-13 02:52:00,74.0,72.0,-100.00,NNW,337,0.0,0.0,95,0.00,,,0.03,0.000000,,2013-07-13 06:52:00,
2013-07-13 03:02:00,74.0,72.0,-100.00,NNW,337,0.0,0.0,95,0.00,,,0.03,0.000000,,2013-07-13 07:02:00,
2013-07-13 03:33:00,74.0,72.0,-100.00,WSW,245,0.0,0.0,95,0.00,,,0.03,0.000000,,2013-07-13 07:33:00,
2013-07-13 03:44:00,74.0,72.0,-100.00,WSW,245,0.0,0.0,95,0.00,,,0.03,0.000000,,2013-07-13 07:44:00,
2013-07-13 03:53:00,74.0,72.0,-100.00,WSW,245,0.0,0.0,95,0.00,,,0.03,0.000000,,2013-07-13 07:53:00,
2013-07-13 04:02:00,74.0,72.0,-100.00,WSW,245,0.0,0.0,95,0.00,,,0.03,0.000000,,2013-07-13 08:02:00,
2013-07-13 04:33:00,74.0,73.0,-100.00,SSE,161,0.0,0.0,96,0.01,,,-99.99,0.000000,,2013-07-13 08:33:00,
2013-07-13 04:43:00,74.0,73.0,-100.00,SSE,161,0.0,0.0,96,0.01,,,-99.99,0.000000,,2013-07-13 08:43:00,
2013-07-13 04:52:00,74.0,73.0,-100.00,SSE,161,0.0,0.0,96,0.01,,,-99.99,0.000000,,2013-07-13 08:52:00,
2013-07-13 05:02:00,74.0,73.0,-100.00,SSE,161,0.0,0.0,96,0.01,,,-99.99,0.000000,,2013-07-13 09:02:00,
2013-07-13 05:33:00,74.0,73.0,-100.00,East,80,0.0,0.0,96,0.00,,,0.04,0.000000,,2013-07-13 09:33:00,
2013-07-13 05:43:00,74.0,73.0,-100.00,East,80,0.0,0.0,96,0.00,,,0.04,0.000000,,2013-07-13 09:43:00,
2013-07-13 05:53:00,74.0,73.0,-100.00,East,80,0.0,0.0,96,0.00,,,0.04,0.000000,,2013-07-13 09:53:00,
2013-07-13 06:01:00,74.0,73.0,-100.00,East,80,0.0,0.0,96,0.00,,,0.04,0.000000,,2013-07-13 10:01:00,
2013-07-13 06:32:00,74.0,73.0,-100.00,East,86,0.0,0.0,96,0.00,,,0.04,0.000000,,2013-07-13 10:32:00,
2013-07-13 06:43:00,74.0,73.0,-100.00,East,86,0.0,0.0,96,0.00,,,0.04,0.000000,,2013-07-13 10:43:00,
2013-07-13 06:52:00,74.0,73.0,-100.00,East,86,0.0,0.0,96,0.00,,,0.04,0.000000,,2013-07-13 10:52:00,
2013-07-13 07:02:00,74.0,73.0,-100.00,East,86,0.0,0.0,96,0.00,,,0.04,0.000000,,2013-07-13 11:02:00,
2013-07-13 07:32:00,75.0,74.0,-100.00,East,93,1.0,4.0,96,0.00,,,0.04,3.000000,,2013-07-13 11:32:00,
2013-07-13 07:43:00,75.0,74.0,-100.00,East,93,1.0,4.0,96,0.00,,,0.04,3.000000,,2013-07-13 11:43:00,
2013-07-13 07:52:00,75.0,74.0,-100.00,East,93,1.0,4.0,96,0.00,,,0.04,3.000000,,2013-07-13 11:52:00,
2013-07-13 08:02:00,75.0,74.0,-100.00,East,93,1.0,4.0,96,0.00,,,0.04,3.000000,,2013-07-13 12:02:00,
2013-07-13 08:32:00,77.0,75.0,-100.00,SE,132,0.0,5.0,95,0.00,,,0.04,91.000000,,2013-07-13 12:32:00,
2013-07-13 08:43:00,77.0,75.0,-100.00,SE,132,0.0,5.0,95,0.00,,,0.04,91.000000,,2013-07-13 12:43:00,
2013-07-13 08:52:00,77.0,75.0,-100.00,SE,132,0.0,5.0,95,0.00,,,0.04,91.000000,,2013-07-13 12:52:00,
2013-07-13 09:01:00,77.0,75.0,-100.00,SE,132,0.0,5.0,95,0.00,,,0.04,91.000000,,2013-07-13 13:01:00,
2013-07-13 09:32:00,81.0,75.0,-100.00,ESE,123,2.0,5.0,82,0.00,,,0.04,246.000000,,2013-07-13 13:32:00,
2013-07-13 09:43:00,81.0,75.0,-100.00,ESE,123,2.0,5.0,82,0.00,,,0.04,246.000000,,2013-07-13 13:43:00,
2013-07-13 09:53:00,81.0,75.0,-100.00,ESE,123,2.0,5.0,82,0.00,,,0.04,246.000000,,2013-07-13 13:53:00,
2013-07-13 10:02:00,81.0,75.0,-100.00,ESE,123,2.0,5.0,82,0.00,,,0.04,246.000000,,2013-07-13 14:02:00,
2013-07-13 10:33:00,82.0,75.0,-100.00,NW,325,2.0,6.0,79,0.00,,,0.04,281.000000,,2013-07-13 14:33:00,
2013-07-13 10:44:00,82.0,75.0,-100.00,NW,325,2.0,6.0,79,0.00,,,0.04,281.000000,,2013-07-13 14:44:00,
2013-07-13 10:53:00,82.0,75.0,-100.00,NW,325,2.0,6.0,79,0.00,,,0.04,281.000000,,2013-07-13 14:53:00,
2013-07-13 11:02:00,82.0,75.0,-100.00,NW,325,2.0,6.0,79,0.00,,,0.04,281.000000,,2013-07-13 15:02:00,
2013-07-13 11:22:00,80.0,73.0,-100.00,NW,310,3.0,6.0,79,0.03,,,0.07,230.000000,,2013-07-13 15:22:00,
2013-07-13 11:33:00,80.0,73.0,-100.00,NW,310,3.0,6.0,79,0.03,,,0.07,230.000000,,2013-07-13 15:33:00,
2013-07-13 11:43:00,80.0,73.0,-100.00,NW,310,3.0,6.0,79,0.03,,,0.07,230.000000,,2013-07-13 15:43:00,
2013-07-13 11:53:00,80.0,73.0,-100.00,NW,310,3.0,6.0,79,0.03,,,0.07,230.000000,,2013-07-13 15:53:00,
2013-07-13 12:02:00,80.0,73.0,-100.00,NW,310,3.0,6.0,79,0.03,,,0.07,230.000000,,2013-07-13 16:02:00,
2013-07-13 12:22:00,79.0,76.0,-100.00,NNW,345,4.0,7.0,92,0.17,,,0.24,324.000000,,2013-07-13 16:22:00,
2013-07-13 12:33:00,79.0,76.0,-100.00,NNW,345,4.0,7.0,92,0.17,,,0.24,324.000000,,2013-07-13 16:33:00,
2013-07-13 12:43:00,79.0,76.0,-100.00,NNW,345,4.0,7.0,92,0.17,,,0.24,324.000000,,2013-07-13 16:43:00,
2013-07-13 12:53:00,79.0,76.0,-100.00,NNW,345,4.0,7.0,92,0.17,,,0.24,324.000000,,2013-07-13 16:53:00,
2013-07-13 13:01:00,79.0,76.0,-100.00,NNW,345,4.0,7.0,92,0.17,,,0.24,324.000000,,2013-07-13 17:01:00,
2013-07-13 13:22:00,80.0,73.0,-100.00,NE,37,4.0,9.0,78,0.00,,,0.24,786.000000,,2013-07-13 17:22:00,
2013-07-13 13:33:00,80.0,73.0,-100.00,NE,37,4.0,9.0,78,0.00,,,0.24,786.000000,,2013-07-13 17:33:00,
2013-07-13 13:43:00,80.0,73.0,-100.00,NE,37,4.0,9.0,78,0.00,,,0.24,786.000000,,2013-07-13 17:43:00,
2013-07-13 13:52:00,80.0,73.0,-100.00,NE,37,4.0,9.0,78,0.00,,,0.24,786.000000,,2013-07-13 17:52:00,
2013-07-13 14:01:00,80.0,73.0,-100.00,NE,37,4.0,9.0,78,0.00,,,0.24,786.000000,,2013-07-13 18:01:00,
2013-07-13 14:22:00,82.0,71.0,-100.00,North,359,2.0,9.0,70,0.00,,,0.24,819.000000,,2013-07-13 18:22:00,
2013-07-13 14:32:00,82.0,71.0,-100.00,North,359,2.0,9.0,70,0.00,,,0.24,819.000000,,2013-07-13 18:32:00,
2013-07-13 14:44:00,82.0,71.0,-100.00,North,359,2.0,9.0,70,0.00,,,0.24,819.000000,,2013-07-13 18:44:00,
2013-07-13 14:53:00,82.0,71.0,-100.00,North,359,2.0,9.0,70,0.00,,,0.24,819.000000,,2013-07-13 18:53:00,
2013-07-13 15:02:00,82.0,71.0,-100.00,North,359,2.0,9.0,70,0.00,,,0.24,819.000000,,2013-07-13 19:02:00,
2013-07-13 15:22:00,76.0,70.0,-100.00,West,277,3.0,11.0,82,0.09,,,0.33,181.000000,,2013-07-13 19:22:00,
2013-07-13 15:32:00,76.0,70.0,-100.00,West,277,3.0,11.0,82,0.09,,,0.33,181.000000,,2013-07-13 19:32:00,
2013-07-13 15:44:00,76.0,70.0,-100.00,West,277,3.0,11.0,82,0.09,,,0.33,181.000000,,2013-07-13 19:44:00,
2013-07-13 15:52:00,76.0,70.0,-100.00,West,277,3.0,11.0,82,0.09,,,0.33,181.000000,,2013-07-13 19:52:00,
2013-07-13 16:01:00,76.0,70.0,-100.00,West,277,3.0,11.0,82,0.09,,,0.33,181.000000,,2013-07-13 20:01:00,
2013-07-13 16:22:00,75.0,72.0,-100.00,West,272,3.0,6.0,91,0.00,,,0.33,112.000000,,2013-07-13 20:22:00,
2013-07-13 16:33:00,75.0,72.0,-100.00,West,272,3.0,6.0,91,0.00,,,0.33,112.000000,,2013-07-13 20:33:00,
2013-07-13 16:43:00,75.0,72.0,-100.00,West,272,3.0,6.0,91,0.00,,,0.33,112.000000,,2013-07-13 20:43:00,
2013-07-13 16:53:00,75.0,72.0,-100.00,West,272,3.0,6.0,91,0.00,,,0.33,112.000000,,2013-07-13 20:53:00,
2013-07-13 17:02:00,75.0,72.0,-100.00,West,272,3.0,6.0,91,0.00,,,0.33,112.000000,,2013-07-13 21:02:00,
2013-07-13 17:22:00,74.0,72.0,-100.00,ENE,58,3.0,8.0,93,0.00,,,0.33,52.000000,,2013-07-13 21:22:00,
2013-07-13 17:32:00,74.0,72.0,-100.00,ENE,58,3.0,8.0,93,0.00,,,0.33,52.000000,,2013-07-13 21:32:00,
2013-07-13 17:43:00,74.0,72.0,-100.00,ENE,58,3.0,8.0,93,0.00,,,0.33,52.000000,,2013-07-13 21:43:00,
2013-07-13 17:53:00,74.0,72.0,-100.00,ENE,58,3.0,8.0,93,0.00,,,0.33,52.000000,,2013-07-13 21:53:00,
2013-07-13 18:01:00,74.0,72.0,-100.00,ENE,58,3.0,8.0,93,0.00,,,0.33,52.000000,,2013-07-13 22:01:00,
2013-07-13 18:22:00,76.0,74.0,-100.00,ENE,72,2.0,6.0,93,0.15,,,0.48,143.000000,,2013-07-13 22:22:00,
2013-07-13 18:32:00,76.0,74.0,-100.00,ENE,72,2.0,6.0,93,0.15,,,0.48,143.000000,,2013-07-13 22:32:00,
2013-07-13 18:43:00,76.0,74.0,-100.00,ENE,72,2.0,6.0,93,0.15,,,0.48,143.000000,,2013-07-13 22:43:00,
2013-07-13 18:53:00,76.0,74.0,-100.00,ENE,72,2.0,6.0,93,0.15,,,0.48,143.000000,,2013-07-13 22:53:00,
2013-07-13 19:02:00,76.0,74.0,-100.00,ENE,72,2.0,6.0,93,0.15,,,0.48,143.000000,,2013-07-13 23:02:00,
2013-07-13 19:22:00,75.0,73.0,-100.00,NNE,29,1.0,4.0,94,0.03,,,0.51,35.000000,,2013-07-13 23:22:00,
2013-07-13 19:32:00,75.0,73.0,-100.00,NNE,29,1.0,4.0,94,0.03,,,0.51,35.000000,,2013-07-13 23:32:00,
2013-07-13 19:42:00,75.0,73.0,-100.00,NNE,29,1.0,4.0,94,0.03,,,0.51,35.000000,,2013-07-13 23:42:00,
2013-07-13 19:53:00,75.0,73.0,-100.00,NNE,29,1.0,4.0,94,0.03,,,0.51,35.000000,,2013-07-13 23:53:00,
2013-07-13 20:01:00,75.0,73.0,-100.00,NNE,29,1.0,4.0,94,0.03,,,0.51,35.000000,,2013-07-14 00:01:00,
2013-07-13 20:22:00,75.0,73.0,-100.00,NE,55,1.0,3.0,94,0.00,,,0.49,50.000000,,2013-07-14 00:22:00,
2013-07-13 20:33:00,75.0,73.0,-100.00,NE,55,1.0,3.0,94,0.00,,,0.49,50.000000,,2013-07-14 00:33:00,
2013-07-13 20:42:00,75.0,73.0,-100.00,NE,55,1.0,3.0,94,0.00,,,0.49,50.000000,,2013-07-14 00:42:00,
2013-07-13 20:53:00,75.0,73.0,-100.00,NE,55,1.0,3.0,94,0.00,,,0.49,50.000000,,2013-07-14 00:53:00,
2013-07-13 21:02:00,75.0,73.0,-100.00,NE,55,1.0,3.0,94,0.00,,,0.49,50.000000,,2013-07-14 01:02:00,
2013-07-13 21:22:00,75.0,73.0,-100.00,ESE,106,1.0,4.0,95,0.00,,,0.48,4.000000,,2013-07-14 01:22:00,
2013-07-13 21:32:00,75.0,73.0,-100.00,ESE,106,1.0,4.0,95,0.00,,,0.48,4.000000,,2013-07-14 01:32:00,
2013-07-13 21:43:00,75.0,73.0,-100.00,ESE,106,1.0,4.0,95,0.00,,,0.48,4.000000,,2013-07-14 01:43:00,
2013-07-13 21:52:00,75.0,73.0,-100.00,ESE,106,1.0,4.0,95,0.00,,,0.48,4.000000,,2013-07-14 01:52:00,
2013-07-13 22:02:00,75.0,73.0,-100.00,ESE,106,1.0,4.0,95,0.00,,,0.48,4.000000,,2013-07-14 02:02:00,
2013-07-13 22:22:00,74.0,72.0,-100.00,NNW,327,0.0,4.0,95,0.00,,,0.48,0.000000,,2013-07-14 02:22:00,
2013-07-13 22:32:00,74.0,72.0,-100.00,NNW,327,0.0,4.0,95,0.00,,,0.48,0.000000,,2013-07-14 02:32:00,
2013-07-13 22:43:00,74.0,72.0,-100.00,NNW,327,0.0,4.0,95,0.00,,,0.48,0.000000,,2013-07-14 02:43:00,
2013-07-13 22:53:00,74.0,72.0,-100.00,NNW,327,0.0,4.0,95,0.00,,,0.48,0.000000,,2013-07-14 02:53:00,
2013-07-13 23:02:00,74.0,72.0,-100.00,NNW,327,0.0,4.0,95,0.00,,,0.48,0.000000,,2013-07-14 03:02:00,
2013-07-13 23:22:00,74.0,72.0,-100.00,SSW,210,0.0,0.0,95,0.00,,,0.48,0.000000,,2013-07-14 03:22:00,
2013-07-13 23:32:00,74.0,72.0,-100.00,SSW,210,0.0,0.0,95,0.00,,,0.48,0.000000,,2013-07-14 03:32:00,
2013-07-13 23:43:00,74.0,72.0,-100.00,SSW,210,0.0,0.0,95,0.00,,,0.48,0.000000,,2013-07-14 03:43:00,
2013-07-13 23:53:00,74.0,72.0,-100.00,SSW,210,0.0,0.0,95,0.00,,,0.48,0.000000,,2013-07-14 03:53:00,